owner,sensor,date,latitude,longitude,air_temperature,qcFlag 
TABS,ioos:station:wmo:42043:1,2014-06-01T00:00:00Z,28.9818,-94.9186,16.0,11144222 
TABS,ioos:station:wmo:42043:1,2014-06-01T00:30:00Z,28.9818,-94.9186,15.8,11144222 
TABS,ioos:station:wmo:42043:1,2014-06-01T01:00:00Z,28.9818,-94.9186,15.8,11144222 
TABS,ioos:station:wmo:42043:1,2014-06-01T01:30:00Z,28.9818,-94.9186,15.6,11144222 
TABS,ioos:station:wmo:42043:1,2014-06-01T02:00:00Z,28.9818,-94.9186,15.5,11144222 
TABS,ioos:station:wmo:42043:1,2014-06-01T02:30:00Z,28.9818,-94.9186,15.6,11144222 
TABS,ioos:station:wmo:42043:1,2014-06-01T03:00:00Z,28.9818,-94.9186,15.6,11144222 
TABS,ioos:station:wmo:42043:1,2014-06-01T03:30:00Z,28.9818,-94.9186,15.4,11144222 
TABS,ioos:station:wmo:42043:1,2014-06-01T04:00:00Z,28.9818,-94.9186,15.3,11144222 
TABS,ioos:station:wmo:42043:1,2014-06-01T04:30:00Z,28.9818,-94.9186,15.1,11144222 
TABS,ioos:station:wmo:42043:1,2014-06-01T05:00:00Z,28.9818,-94.9186,15.2,11144222 
TABS,ioos:station:wmo:42043:1,2014-06-01T05:30:00Z,28.9818,-94.9186,15.1,11144222 
TABS,ioos:station:wmo:42043:1,2014-06-01T06:00:00Z,28.9818,-94.9186,14.9,11144222 
TABS,ioos:station:wmo:42043:1,2014-06-01T06:30:00Z,28.9818,-94.9186,14.7,11144222 
TABS,ioos:station:wmo:42043:1,2014-06-01T07:00:00Z,28.9818,-94.9186,14.6,11144222 
TABS,ioos:station:wmo:42043:1,2014-06-01T07:30:00Z,28.9818,-94.9186,14.6,11144222 
TABS,ioos:station:wmo:42043:1,2014-06-01T08:00:00Z,28.9818,-94.9186,14.4,11144222 
TABS,ioos:station:wmo:42043:1,2014-06-01T08:30:00Z,28.9818,-94.9186,14.3,11144222 
TABS,ioos:station:wmo:42043:1,2014-06-01T09:00:00Z,28.9818,-94.9186,14.3,11144222 
TABS,ioos:station:wmo:42043:1,2014-06-01T09:30:00Z,28.9818,-94.9186,14.3,11144222 
TABS,ioos:station:wmo:42043:1,2014-06-01T10:00:00Z,28.9818,-94.9186,14.2,11144222 
TABS,ioos:station:wmo:42043:1,2014-06-01T10:30:00Z,28.9818,-94.9186,13.9,11144222 
TABS,ioos:station:wmo:42043:1,2014-06-01T11:00:00Z,28.9818,-94.9186,13.9,11144222 
TABS,ioos:station:wmo:42043:1,2014-06-01T11:30:00Z,28.9818,-94.9186,13.8,11144222 
TABS,ioos:station:wmo:42043:1,2014-06-01T12:00:00Z,28.9818,-94.9186,14.3,11144222 
TABS,ioos:station:wmo:42043:1,2014-06-01T12:30:00Z,28.9818,-94.9186,15.1,11144222 
TABS,ioos:station:wmo:42043:1,2014-06-01T13:00:00Z,28.9818,-94.9186,15.3,11144222 
TABS,ioos:station:wmo:42043:1,2014-06-01T13:30:00Z,28.9818,-94.9186,14.7,11144222 
TABS,ioos:station:wmo:42043:1,2014-06-01T14:00:00Z,28.9818,-94.9186,15.6,11144222 
TABS,ioos:station:wmo:42043:1,2014-06-01T14:30:00Z,28.9818,-94.9186,15.6,11144222 
TABS,ioos:station:wmo:42043:1,2014-06-01T15:00:00Z,28.9818,-94.9186,15.5,11144222 
TABS,ioos:station:wmo:42043:1,2014-06-01T15:30:00Z,28.9818,-94.9186,15.7,11144222 
TABS,ioos:station:wmo:42043:1,2014-06-01T16:00:00Z,28.9818,-94.9186,15.6,11144222 
TABS,ioos:station:wmo:42043:1,2014-06-01T16:30:00Z,28.9818,-94.9186,15.5,11144222 
TABS,ioos:station:wmo:42043:1,2014-06-01T17:00:00Z,28.9818,-94.9186,15.4,11144222 
TABS,ioos:station:wmo:42043:1,2014-06-01T17:30:00Z,28.9818,-94.9186,15.4,11144222 
TABS,ioos:station:wmo:42043:1,2014-06-01T18:00:00Z,28.9818,-94.9186,15.4,11144222 
TABS,ioos:station:wmo:42043:1,2014-06-01T18:30:00Z,28.9818,-94.9186,15.3,11144222 
TABS,ioos:station:wmo:42043:1,2014-06-01T19:00:00Z,28.9818,-94.9186,15.8,11144222 
TABS,ioos:station:wmo:42043:1,2014-06-01T19:30:00Z,28.9818,-94.9186,15.6,11144222 
TABS,ioos:station:wmo:42043:1,2014-06-01T20:00:00Z,28.9818,-94.9186,15.7,11144222 
TABS,ioos:station:wmo:42043:1,2014-06-01T20:30:00Z,28.9818,-94.9186,15.7,11144222 
TABS,ioos:station:wmo:42043:1,2014-06-01T21:00:00Z,28.9818,-94.9186,15.8,11144222 
TABS,ioos:station:wmo:42043:1,2014-06-01T21:30:00Z,28.9818,-94.9186,15.7,11144222 
TABS,ioos:station:wmo:42043:1,2014-06-01T22:00:00Z,28.9818,-94.9186,16.2,11144222 
TABS,ioos:station:wmo:42043:1,2014-06-01T22:30:00Z,28.9818,-94.9186,16.0,11144222 
TABS,ioos:station:wmo:42043:1,2014-06-01T23:00:00Z,28.9818,-94.9186,16.0,11144222 
TABS,ioos:station:wmo:42043:1,2014-06-01T23:30:00Z,28.9818,-94.9186,16.2,11144222 
TABS,ioos:station:wmo:42043:1,2014-06-02T00:00:00Z,28.9818,-94.9186,16.1,11144222 
TABS,ioos:station:wmo:42043:1,2014-06-02T00:30:00Z,28.9818,-94.9186,16.0,11144222 
TABS,ioos:station:wmo:42043:1,2014-06-02T01:00:00Z,28.9818,-94.9186,15.6,11144222 
TABS,ioos:station:wmo:42043:1,2014-06-02T01:30:00Z,28.9818,-94.9186,15.6,11144222 
TABS,ioos:station:wmo:42043:1,2014-06-02T02:00:00Z,28.9818,-94.9186,15.3,11144222 
TABS,ioos:station:wmo:42043:1,2014-06-02T02:30:00Z,28.9818,-94.9186,15.2,11144222 
TABS,ioos:station:wmo:42043:1,2014-06-02T03:00:00Z,28.9818,-94.9186,15.4,11144222 
TABS,ioos:station:wmo:42043:1,2014-06-02T03:30:00Z,28.9818,-94.9186,15.1,11144222 
TABS,ioos:station:wmo:42043:1,2014-06-02T04:00:00Z,28.9818,-94.9186,15.0,11144222 
TABS,ioos:station:wmo:42043:1,2014-06-02T04:30:00Z,28.9818,-94.9186,14.8,11144222 
TABS,ioos:station:wmo:42043:1,2014-06-02T05:00:00Z,28.9818,-94.9186,14.7,11144222 
TABS,ioos:station:wmo:42043:1,2014-06-02T05:30:00Z,28.9818,-94.9186,14.9,11144222 
TABS,ioos:station:wmo:42043:1,2014-06-02T06:00:00Z,28.9818,-94.9186,14.8,11144222 
TABS,ioos:station:wmo:42043:1,2014-06-02T06:30:00Z,28.9818,-94.9186,14.3,11144222 
TABS,ioos:station:wmo:42043:1,2014-06-02T07:00:00Z,28.9818,-94.9186,14.3,11144222 
TABS,ioos:station:wmo:42043:1,2014-06-02T07:30:00Z,28.9818,-94.9186,14.2,11144222 
TABS,ioos:station:wmo:42043:1,2014-06-02T08:00:00Z,28.9818,-94.9186,14.0,11144222 
TABS,ioos:station:wmo:42043:1,2014-06-02T08:30:00Z,28.9818,-94.9186,14.1,11144222 
TABS,ioos:station:wmo:42043:1,2014-06-02T09:00:00Z,28.9818,-94.9186,14.0,11144222 
TABS,ioos:station:wmo:42043:1,2014-06-02T09:30:00Z,28.9818,-94.9186,13.7,11144222 
TABS,ioos:station:wmo:42043:1,2014-06-02T10:00:00Z,28.9818,-94.9186,13.7,11144222 
TABS,ioos:station:wmo:42043:1,2014-06-02T10:30:00Z,28.9818,-94.9186,13.6,11144222 
TABS,ioos:station:wmo:42043:1,2014-06-02T11:00:00Z,28.9818,-94.9186,13.3,11144222 
TABS,ioos:station:wmo:42043:1,2014-06-02T11:30:00Z,28.9818,-94.9186,10.7,11144222 
TABS,ioos:station:wmo:42043:1,2014-06-02T12:00:00Z,28.9818,-94.9186,9.5,11144222 
TABS,ioos:station:wmo:42043:1,2014-06-02T12:30:00Z,28.9818,-94.9186,12.5,11144222 
TABS,ioos:station:wmo:42043:1,2014-06-02T13:00:00Z,28.9818,-94.9186,11.1,11144222 
TABS,ioos:station:wmo:42043:1,2014-06-02T13:30:00Z,28.9818,-94.9186,12.5,11144222 
TABS,ioos:station:wmo:42043:1,2014-06-02T14:00:00Z,28.9818,-94.9186,13.3,11144222 
TABS,ioos:station:wmo:42043:1,2014-06-02T14:30:00Z,28.9818,-94.9186,13.5,11144222 
TABS,ioos:station:wmo:42043:1,2014-06-02T15:00:00Z,28.9818,-94.9186,13.8,11144222 
TABS,ioos:station:wmo:42043:1,2014-06-02T15:30:00Z,28.9818,-94.9186,13.8,11144222 
TABS,ioos:station:wmo:42043:1,2014-06-02T16:00:00Z,28.9818,-94.9186,13.8,11144222 
TABS,ioos:station:wmo:42043:1,2014-06-02T16:30:00Z,28.9818,-94.9186,13.8,11144222 
TABS,ioos:station:wmo:42043:1,2014-06-02T17:00:00Z,28.9818,-94.9186,13.9,11144222 
TABS,ioos:station:wmo:42043:1,2014-06-02T17:30:00Z,28.9818,-94.9186,13.8,11144222 
TABS,ioos:station:wmo:42043:1,2014-06-02T18:00:00Z,28.9818,-94.9186,13.8,11144222 
TABS,ioos:station:wmo:42043:1,2014-06-02T18:30:00Z,28.9818,-94.9186,13.5,11144222 
TABS,ioos:station:wmo:42043:1,2014-06-02T19:00:00Z,28.9818,-94.9186,13.6,11144222 
TABS,ioos:station:wmo:42043:1,2014-06-02T19:30:00Z,28.9818,-94.9186,13.5,11144222 
TABS,ioos:station:wmo:42043:1,2014-06-02T20:00:00Z,28.9818,-94.9186,13.3,11144222 
TABS,ioos:station:wmo:42043:1,2014-06-02T20:30:00Z,28.9818,-94.9186,13.8,11144222 
TABS,ioos:station:wmo:42043:1,2014-06-02T21:00:00Z,28.9818,-94.9186,13.9,11144222 
TABS,ioos:station:wmo:42043:1,2014-06-02T21:30:00Z,28.9818,-94.9186,14.3,11144222 
TABS,ioos:station:wmo:42043:1,2014-06-02T22:00:00Z,28.9818,-94.9186,14.6,11144222 
TABS,ioos:station:wmo:42043:1,2014-06-02T22:30:00Z,28.9818,-94.9186,14.8,11144222 
TABS,ioos:station:wmo:42043:1,2014-06-02T23:00:00Z,28.9818,-94.9186,14.9,11144222 
TABS,ioos:station:wmo:42043:1,2014-06-02T23:30:00Z,28.9818,-94.9186,15.2,11144222 
TABS,ioos:station:wmo:42043:1,2014-06-03T00:00:00Z,28.9818,-94.9186,15.6,11144222 
TABS,ioos:station:wmo:42043:1,2014-06-03T00:30:00Z,28.9818,-94.9186,15.5,11144222 
TABS,ioos:station:wmo:42043:1,2014-06-03T01:00:00Z,28.9818,-94.9186,15.1,11144222 
TABS,ioos:station:wmo:42043:1,2014-06-03T01:30:00Z,28.9818,-94.9186,14.8,11144222 
TABS,ioos:station:wmo:42043:1,2014-06-03T02:00:00Z,28.9818,-94.9186,14.7,11144222 
TABS,ioos:station:wmo:42043:1,2014-06-03T02:30:00Z,28.9818,-94.9186,14.6,11144222 
TABS,ioos:station:wmo:42043:1,2014-06-03T03:00:00Z,28.9818,-94.9186,14.5,11144222 
TABS,ioos:station:wmo:42043:1,2014-06-03T03:30:00Z,28.9818,-94.9186,14.3,11144222 
TABS,ioos:station:wmo:42043:1,2014-06-03T04:00:00Z,28.9818,-94.9186,14.1,11144222 
TABS,ioos:station:wmo:42043:1,2014-06-03T04:30:00Z,28.9818,-94.9186,14.0,11144222 
TABS,ioos:station:wmo:42043:1,2014-06-03T05:00:00Z,28.9818,-94.9186,13.9,11144222 
TABS,ioos:station:wmo:42043:1,2014-06-03T05:30:00Z,28.9818,-94.9186,14.0,11144222 
TABS,ioos:station:wmo:42043:1,2014-06-03T06:00:00Z,28.9818,-94.9186,13.4,11144222 
TABS,ioos:station:wmo:42043:1,2014-06-03T06:30:00Z,28.9818,-94.9186,13.2,11144222 
TABS,ioos:station:wmo:42043:1,2014-06-03T07:00:00Z,28.9818,-94.9186,12.6,11144222 
TABS,ioos:station:wmo:42043:1,2014-06-03T07:30:00Z,28.9818,-94.9186,9.1,11144222 
TABS,ioos:station:wmo:42043:1,2014-06-03T08:00:00Z,28.9818,-94.9186,8.6,11144222 
TABS,ioos:station:wmo:42043:1,2014-06-03T08:30:00Z,28.9818,-94.9186,8.4,11144222 
TABS,ioos:station:wmo:42043:1,2014-06-03T09:00:00Z,28.9818,-94.9186,8.0,11144222 
TABS,ioos:station:wmo:42043:1,2014-06-03T09:30:00Z,28.9818,-94.9186,8.0,11144222 
TABS,ioos:station:wmo:42043:1,2014-06-03T10:00:00Z,28.9818,-94.9186,7.6,11144222 
TABS,ioos:station:wmo:42043:1,2014-06-03T10:30:00Z,28.9818,-94.9186,7.3,11144222 
TABS,ioos:station:wmo:42043:1,2014-06-03T11:00:00Z,28.9818,-94.9186,6.8,11144222 
TABS,ioos:station:wmo:42043:1,2014-06-03T11:30:00Z,28.9818,-94.9186,6.7,11144222 
TABS,ioos:station:wmo:42043:1,2014-06-03T12:00:00Z,28.9818,-94.9186,7.3,11144222 
TABS,ioos:station:wmo:42043:1,2014-06-03T12:30:00Z,28.9818,-94.9186,7.6,11144222 
TABS,ioos:station:wmo:42043:1,2014-06-03T13:00:00Z,28.9818,-94.9186,6.9,11144222 
TABS,ioos:station:wmo:42043:1,2014-06-03T13:30:00Z,28.9818,-94.9186,8.0,11144222 
TABS,ioos:station:wmo:42043:1,2014-06-03T14:00:00Z,28.9818,-94.9186,9.1,11144222 
TABS,ioos:station:wmo:42043:1,2014-06-03T14:30:00Z,28.9818,-94.9186,11.1,11144222 
TABS,ioos:station:wmo:42043:1,2014-06-03T15:00:00Z,28.9818,-94.9186,11.0,11144222 
TABS,ioos:station:wmo:42043:1,2014-06-03T15:30:00Z,28.9818,-94.9186,11.0,11144222 
TABS,ioos:station:wmo:42043:1,2014-06-03T16:00:00Z,28.9818,-94.9186,11.0,11144222 
TABS,ioos:station:wmo:42043:1,2014-06-03T16:30:00Z,28.9818,-94.9186,11.8,11144222 
TABS,ioos:station:wmo:42043:1,2014-06-03T17:00:00Z,28.9818,-94.9186,12.1,11144222 
TABS,ioos:station:wmo:42043:1,2014-06-03T17:30:00Z,28.9818,-94.9186,12.1,11144222 
TABS,ioos:station:wmo:42043:1,2014-06-03T18:00:00Z,28.9818,-94.9186,11.9,11144222 
TABS,ioos:station:wmo:42043:1,2014-06-03T18:30:00Z,28.9818,-94.9186,11.3,11144222 
TABS,ioos:station:wmo:42043:1,2014-06-03T19:00:00Z,28.9818,-94.9186,11.3,11144222 
TABS,ioos:station:wmo:42043:1,2014-06-03T19:30:00Z,28.9818,-94.9186,11.0,11144222 
TABS,ioos:station:wmo:42043:1,2014-06-03T20:00:00Z,28.9818,-94.9186,11.3,11144222 
TABS,ioos:station:wmo:42043:1,2014-06-03T20:30:00Z,28.9818,-94.9186,11.5,11144222 
TABS,ioos:station:wmo:42043:1,2014-06-03T21:00:00Z,28.9818,-94.9186,11.6,11144222 
TABS,ioos:station:wmo:42043:1,2014-06-03T21:30:00Z,28.9818,-94.9186,12.3,11144222 
TABS,ioos:station:wmo:42043:1,2014-06-03T22:00:00Z,28.9818,-94.9186,12.7,11144222 
TABS,ioos:station:wmo:42043:1,2014-06-03T22:30:00Z,28.9818,-94.9186,13.1,11144222 
TABS,ioos:station:wmo:42043:1,2014-06-03T23:00:00Z,28.9818,-94.9186,13.6,11144222 
TABS,ioos:station:wmo:42043:1,2014-06-03T23:30:00Z,28.9818,-94.9186,13.3,11144222 
TABS,ioos:station:wmo:42043:1,2014-06-04T00:00:00Z,28.9818,-94.9186,13.4,11144222 
TABS,ioos:station:wmo:42043:1,2014-06-04T00:30:00Z,28.9818,-94.9186,13.5,11144222 
TABS,ioos:station:wmo:42043:1,2014-06-04T01:00:00Z,28.9818,-94.9186,12.5,11144222 
TABS,ioos:station:wmo:42043:1,2014-06-04T01:30:00Z,28.9818,-94.9186,12.2,11144222 
TABS,ioos:station:wmo:42043:1,2014-06-04T02:00:00Z,28.9818,-94.9186,12.0,11144222 
TABS,ioos:station:wmo:42043:1,2014-06-04T02:30:00Z,28.9818,-94.9186,11.6,11144222 
TABS,ioos:station:wmo:42043:1,2014-06-04T03:00:00Z,28.9818,-94.9186,11.1,11144222 
TABS,ioos:station:wmo:42043:1,2014-06-04T03:30:00Z,28.9818,-94.9186,9.3,11144222 
TABS,ioos:station:wmo:42043:1,2014-06-04T04:00:00Z,28.9818,-94.9186,8.6,11144222 
TABS,ioos:station:wmo:42043:1,2014-06-04T04:30:00Z,28.9818,-94.9186,8.3,11144222 
TABS,ioos:station:wmo:42043:1,2014-06-04T05:00:00Z,28.9818,-94.9186,7.9,11144222 
TABS,ioos:station:wmo:42043:1,2014-06-04T05:30:00Z,28.9818,-94.9186,7.9,11144222 
TABS,ioos:station:wmo:42043:1,2014-06-04T06:00:00Z,28.9818,-94.9186,7.1,11144222 
TABS,ioos:station:wmo:42043:1,2014-06-04T06:30:00Z,28.9818,-94.9186,6.8,11144222 
TABS,ioos:station:wmo:42043:1,2014-06-04T07:00:00Z,28.9818,-94.9186,6.5,11144222 
TABS,ioos:station:wmo:42043:1,2014-06-04T07:30:00Z,28.9818,-94.9186,6.9,11144222 
TABS,ioos:station:wmo:42043:1,2014-06-04T08:00:00Z,28.9818,-94.9186,5.9,11144222 
TABS,ioos:station:wmo:42043:1,2014-06-04T08:30:00Z,28.9818,-94.9186,5.0,11144222 
TABS,ioos:station:wmo:42043:1,2014-06-04T09:00:00Z,28.9818,-94.9186,4.6,11144222 
TABS,ioos:station:wmo:42043:1,2014-06-04T09:30:00Z,28.9818,-94.9186,4.5,11144222 
TABS,ioos:station:wmo:42043:1,2014-06-04T10:00:00Z,28.9818,-94.9186,4.2,11144222 
TABS,ioos:station:wmo:42043:1,2014-06-04T10:30:00Z,28.9818,-94.9186,3.8,11144222 
TABS,ioos:station:wmo:42043:1,2014-06-04T11:00:00Z,28.9818,-94.9186,3.2,11144222 
TABS,ioos:station:wmo:42043:1,2014-06-04T11:30:00Z,28.9818,-94.9186,2.9,11144222 
TABS,ioos:station:wmo:42043:1,2014-06-04T12:00:00Z,28.9818,-94.9186,3.2,11144222 
TABS,ioos:station:wmo:42043:1,2014-06-04T12:30:00Z,28.9818,-94.9186,5.0,11144222 
TABS,ioos:station:wmo:42043:1,2014-06-04T13:00:00Z,28.9818,-94.9186,5.9,11144222 
TABS,ioos:station:wmo:42043:1,2014-06-04T13:30:00Z,28.9818,-94.9186,7.3,11144222 
TABS,ioos:station:wmo:42043:1,2014-06-04T14:00:00Z,28.9818,-94.9186,7.6,11144222 
TABS,ioos:station:wmo:42043:1,2014-06-04T14:30:00Z,28.9818,-94.9186,7.8,11144222 
TABS,ioos:station:wmo:42043:1,2014-06-04T15:00:00Z,28.9818,-94.9186,7.7,11144222 
TABS,ioos:station:wmo:42043:1,2014-06-04T15:30:00Z,28.9818,-94.9186,7.6,11144222 
TABS,ioos:station:wmo:42043:1,2014-06-04T16:00:00Z,28.9818,-94.9186,7.3,11144222 
TABS,ioos:station:wmo:42043:1,2014-06-04T16:30:00Z,28.9818,-94.9186,6.7,11144222 
TABS,ioos:station:wmo:42043:1,2014-06-04T17:00:00Z,28.9818,-94.9186,6.3,11144222 
TABS,ioos:station:wmo:42043:1,2014-06-04T17:30:00Z,28.9818,-94.9186,6.7,11144222 
TABS,ioos:station:wmo:42043:1,2014-06-04T18:00:00Z,28.9818,-94.9186,5.8,11144222 
TABS,ioos:station:wmo:42043:1,2014-06-04T18:30:00Z,28.9818,-94.9186,4.4,11144222 
TABS,ioos:station:wmo:42043:1,2014-06-04T19:00:00Z,28.9818,-94.9186,4.1,11144222 
TABS,ioos:station:wmo:42043:1,2014-06-04T19:30:00Z,28.9818,-94.9186,4.2,11144222 
TABS,ioos:station:wmo:42043:1,2014-06-04T20:00:00Z,28.9818,-94.9186,4.0,11144222 
TABS,ioos:station:wmo:42043:1,2014-06-04T20:30:00Z,28.9818,-94.9186,4.2,11144222 
TABS,ioos:station:wmo:42043:1,2014-06-04T21:00:00Z,28.9818,-94.9186,4.2,11144222 
TABS,ioos:station:wmo:42043:1,2014-06-04T21:30:00Z,28.9818,-94.9186,4.9,11144222 
TABS,ioos:station:wmo:42043:1,2014-06-04T22:00:00Z,28.9818,-94.9186,6.9,11144222 
TABS,ioos:station:wmo:42043:1,2014-06-04T22:30:00Z,28.9818,-94.9186,5.8,11144222 
TABS,ioos:station:wmo:42043:1,2014-06-04T23:00:00Z,28.9818,-94.9186,7.8,11144222 
TABS,ioos:station:wmo:42043:1,2014-06-04T23:30:00Z,28.9818,-94.9186,8.9,11144222 
TABS,ioos:station:wmo:42043:1,2014-06-05T00:00:00Z,28.9818,-94.9186,9.3,11144222 
TABS,ioos:station:wmo:42043:1,2014-06-05T00:30:00Z,28.9818,-94.9186,9.0,11144222 
TABS,ioos:station:wmo:42043:1,2014-06-05T01:00:00Z,28.9818,-94.9186,7.5,11144222 
TABS,ioos:station:wmo:42043:1,2014-06-05T01:30:00Z,28.9818,-94.9186,7.2,11144222 
TABS,ioos:station:wmo:42043:1,2014-06-05T02:00:00Z,28.9818,-94.9186,4.6,11144222 
TABS,ioos:station:wmo:42043:1,2014-06-05T02:30:00Z,28.9818,-94.9186,4.1,11144222 
TABS,ioos:station:wmo:42043:1,2014-06-05T03:00:00Z,28.9818,-94.9186,3.8,11144222 
TABS,ioos:station:wmo:42043:1,2014-06-05T03:30:00Z,28.9818,-94.9186,3.1,11144222 
TABS,ioos:station:wmo:42043:1,2014-06-05T04:00:00Z,28.9818,-94.9186,3.5,11144222 
TABS,ioos:station:wmo:42043:1,2014-06-05T04:30:00Z,28.9818,-94.9186,4.0,11144222 
TABS,ioos:station:wmo:42043:1,2014-06-05T05:00:00Z,28.9818,-94.9186,4.2,11144222 
TABS,ioos:station:wmo:42043:1,2014-06-05T05:30:00Z,28.9818,-94.9186,4.4,11144222 
TABS,ioos:station:wmo:42043:1,2014-06-05T06:00:00Z,28.9818,-94.9186,4.6,11144222 
TABS,ioos:station:wmo:42043:1,2014-06-05T06:30:00Z,28.9818,-94.9186,5.1,11144222 
TABS,ioos:station:wmo:42043:1,2014-06-05T07:00:00Z,28.9818,-94.9186,5.3,11144222 
TABS,ioos:station:wmo:42043:1,2014-06-05T07:30:00Z,28.9818,-94.9186,5.5,11144222 
TABS,ioos:station:wmo:42043:1,2014-06-05T08:00:00Z,28.9818,-94.9186,5.5,11144222 
TABS,ioos:station:wmo:42043:1,2014-06-05T08:30:00Z,28.9818,-94.9186,5.7,11144222 
TABS,ioos:station:wmo:42043:1,2014-06-05T09:00:00Z,28.9818,-94.9186,5.9,11144222 
TABS,ioos:station:wmo:42043:1,2014-06-05T09:30:00Z,28.9818,-94.9186,0.6,11144222 
TABS,ioos:station:wmo:42043:1,2014-06-05T10:00:00Z,28.9818,-94.9186,0.9,11144222 
TABS,ioos:station:wmo:42043:1,2014-06-05T10:30:00Z,28.9818,-94.9186,33.0,11144222 
TABS,ioos:station:wmo:42043:1,2014-06-05T11:00:00Z,28.9818,-94.9186,1.6,11144222 
TABS,ioos:station:wmo:42043:1,2014-06-05T11:30:00Z,28.9818,-94.9186,1.5,11144222 
TABS,ioos:station:wmo:42043:1,2014-06-05T12:00:00Z,28.9818,-94.9186,5.6,11144222 
TABS,ioos:station:wmo:42043:1,2014-06-05T12:30:00Z,28.9818,-94.9186,4.9,11144222 
TABS,ioos:station:wmo:42043:1,2014-06-05T13:00:00Z,28.9818,-94.9186,3.9,11144222 
TABS,ioos:station:wmo:42043:1,2014-06-05T13:30:00Z,28.9818,-94.9186,4.3,11144222 
TABS,ioos:station:wmo:42043:1,2014-06-05T14:00:00Z,28.9818,-94.9186,4.6,11144222 
TABS,ioos:station:wmo:42043:1,2014-06-05T14:30:00Z,28.9818,-94.9186,4.8,11144222 
TABS,ioos:station:wmo:42043:1,2014-06-05T15:00:00Z,28.9818,-94.9186,4.7,11144222 
TABS,ioos:station:wmo:42043:1,2014-06-05T15:30:00Z,28.9818,-94.9186,4.8,11144222 
TABS,ioos:station:wmo:42043:1,2014-06-06T00:00:00Z,28.9818,-94.9186,26.2,11144222 
TABS,ioos:station:wmo:42043:1,2014-06-06T00:30:00Z,28.9818,-94.9186,26.0,11144222 
TABS,ioos:station:wmo:42043:1,2014-06-06T01:00:00Z,28.9818,-94.9186,25.9,11144222 
TABS,ioos:station:wmo:42043:1,2014-06-06T01:30:00Z,28.9818,-94.9186,25.9,11144222 
TABS,ioos:station:wmo:42043:1,2014-06-06T02:00:00Z,28.9818,-94.9186,25.8,11144222 
TABS,ioos:station:wmo:42043:1,2014-06-06T02:30:00Z,28.9818,-94.9186,25.8,11144222 
TABS,ioos:station:wmo:42043:1,2014-06-06T03:00:00Z,28.9818,-94.9186,25.8,11144222 
TABS,ioos:station:wmo:42043:1,2014-06-06T03:30:00Z,28.9818,-94.9186,25.8,11144222 
TABS,ioos:station:wmo:42043:1,2014-06-06T04:00:00Z,28.9818,-94.9186,25.8,11144222 
TABS,ioos:station:wmo:42043:1,2014-06-06T04:30:00Z,28.9818,-94.9186,25.8,11144222 
TABS,ioos:station:wmo:42043:1,2014-06-06T05:00:00Z,28.9818,-94.9186,25.8,11144222 
TABS,ioos:station:wmo:42043:1,2014-06-06T05:30:00Z,28.9818,-94.9186,25.7,11144222 
TABS,ioos:station:wmo:42043:1,2014-06-06T06:00:00Z,28.9818,-94.9186,25.8,11144222 
TABS,ioos:station:wmo:42043:1,2014-06-06T06:30:00Z,28.9818,-94.9186,25.8,11144222 
TABS,ioos:station:wmo:42043:1,2014-06-06T07:00:00Z,28.9818,-94.9186,25.8,11144222 
TABS,ioos:station:wmo:42043:1,2014-06-06T07:30:00Z,28.9818,-94.9186,25.8,11144222 
TABS,ioos:station:wmo:42043:1,2014-06-06T08:00:00Z,28.9818,-94.9186,25.8,11144222 
TABS,ioos:station:wmo:42043:1,2014-06-06T08:30:00Z,28.9818,-94.9186,25.8,11144222 
TABS,ioos:station:wmo:42043:1,2014-06-06T09:00:00Z,28.9818,-94.9186,25.8,11144222 
TABS,ioos:station:wmo:42043:1,2014-06-06T09:30:00Z,28.9818,-94.9186,25.8,11144222 
TABS,ioos:station:wmo:42043:1,2014-06-06T10:00:00Z,28.9818,-94.9186,25.8,11144222 
TABS,ioos:station:wmo:42043:1,2014-06-06T10:30:00Z,28.9818,-94.9186,25.8,11144222 
TABS,ioos:station:wmo:42043:1,2014-06-06T11:00:00Z,28.9818,-94.9186,25.9,11144222 
TABS,ioos:station:wmo:42043:1,2014-06-06T11:30:00Z,28.9818,-94.9186,25.9,11144222 
TABS,ioos:station:wmo:42043:1,2014-06-06T12:00:00Z,28.9818,-94.9186,25.9,11144222 
TABS,ioos:station:wmo:42043:1,2014-06-06T12:30:00Z,28.9818,-94.9186,26.0,11144222 
TABS,ioos:station:wmo:42043:1,2014-06-06T13:00:00Z,28.9818,-94.9186,26.1,11144222 
TABS,ioos:station:wmo:42043:1,2014-06-06T13:30:00Z,28.9818,-94.9186,26.3,11144222 
TABS,ioos:station:wmo:42043:1,2014-06-06T14:00:00Z,28.9818,-94.9186,26.3,11144222 
TABS,ioos:station:wmo:42043:1,2014-06-06T14:30:00Z,28.9818,-94.9186,26.3,11144222 
TABS,ioos:station:wmo:42043:1,2014-06-06T15:00:00Z,28.9818,-94.9186,26.3,11144222 
TABS,ioos:station:wmo:42043:1,2014-06-06T15:30:00Z,28.9818,-94.9186,26.2,11144222 
TABS,ioos:station:wmo:42043:1,2014-06-06T16:00:00Z,28.9818,-94.9186,26.3,11144222 
TABS,ioos:station:wmo:42043:1,2014-06-06T16:30:00Z,28.9818,-94.9186,26.3,11144222 
TABS,ioos:station:wmo:42043:1,2014-06-06T17:00:00Z,28.9818,-94.9186,26.3,11144222 
TABS,ioos:station:wmo:42043:1,2014-06-06T17:30:00Z,28.9818,-94.9186,26.2,11144222 
TABS,ioos:station:wmo:42043:1,2014-06-07T00:00:00Z,28.9818,-94.9186,26.8,11144222 
TABS,ioos:station:wmo:42043:1,2014-06-07T00:30:00Z,28.9818,-94.9186,26.7,11144222 
TABS,ioos:station:wmo:42043:1,2014-06-07T01:00:00Z,28.9818,-94.9186,26.6,11144222 
TABS,ioos:station:wmo:42043:1,2014-06-07T01:30:00Z,28.9818,-94.9186,26.4,11144222 
TABS,ioos:station:wmo:42043:1,2014-06-07T02:00:00Z,28.9818,-94.9186,26.3,11144222 
TABS,ioos:station:wmo:42043:1,2014-06-07T02:30:00Z,28.9818,-94.9186,26.4,11144222 
TABS,ioos:station:wmo:42043:1,2014-06-07T03:00:00Z,28.9818,-94.9186,26.3,11144222 
TABS,ioos:station:wmo:42043:1,2014-06-07T03:30:00Z,28.9818,-94.9186,26.4,11144222 
TABS,ioos:station:wmo:42043:1,2014-06-07T04:00:00Z,28.9818,-94.9186,26.4,11144222 
TABS,ioos:station:wmo:42043:1,2014-06-07T04:30:00Z,28.9818,-94.9186,26.5,11144222 
TABS,ioos:station:wmo:42043:1,2014-06-07T05:00:00Z,28.9818,-94.9186,26.5,11144222 
TABS,ioos:station:wmo:42043:1,2014-06-07T05:30:00Z,28.9818,-94.9186,26.3,11144222 
TABS,ioos:station:wmo:42043:1,2014-06-07T06:00:00Z,28.9818,-94.9186,26.4,11144222 
TABS,ioos:station:wmo:42043:1,2014-06-07T06:30:00Z,28.9818,-94.9186,26.3,11144222 
TABS,ioos:station:wmo:42043:1,2014-06-07T07:00:00Z,28.9818,-94.9186,26.2,11144222 
TABS,ioos:station:wmo:42043:1,2014-06-07T07:30:00Z,28.9818,-94.9186,26.0,11144222 
TABS,ioos:station:wmo:42043:1,2014-06-07T08:00:00Z,28.9818,-94.9186,26.0,11144222 
TABS,ioos:station:wmo:42043:1,2014-06-07T08:30:00Z,28.9818,-94.9186,26.1,11144222 
TABS,ioos:station:wmo:42043:1,2014-06-07T09:00:00Z,28.9818,-94.9186,26.1,11144222 
TABS,ioos:station:wmo:42043:1,2014-06-07T09:30:00Z,28.9818,-94.9186,26.1,11144222 
TABS,ioos:station:wmo:42043:1,2014-06-07T10:00:00Z,28.9818,-94.9186,26.0,11144222 
TABS,ioos:station:wmo:42043:1,2014-06-07T10:30:00Z,28.9818,-94.9186,26.0,11144222 
TABS,ioos:station:wmo:42043:1,2014-06-07T11:00:00Z,28.9818,-94.9186,26.0,11144222 
TABS,ioos:station:wmo:42043:1,2014-06-07T11:30:00Z,28.9818,-94.9186,26.0,11144222 
TABS,ioos:station:wmo:42043:1,2014-06-07T12:00:00Z,28.9818,-94.9186,26.0,11144222 
TABS,ioos:station:wmo:42043:1,2014-06-07T12:30:00Z,28.9818,-94.9186,26.4,11144222 
TABS,ioos:station:wmo:42043:1,2014-06-07T13:00:00Z,28.9818,-94.9186,26.4,11144222 
TABS,ioos:station:wmo:42043:1,2014-06-07T13:30:00Z,28.9818,-94.9186,26.4,11144222 
TABS,ioos:station:wmo:42043:1,2014-06-07T14:00:00Z,28.9818,-94.9186,26.4,11144222 